NOAA 16 DEB, 41197

Orbit data source: Space-Track

NOAA 16 DEB, 41197 is space debris in SSO originally from a launch on Thu, 21 Sep 2000 UTC launched from the Air Force Western Test Range (AFWTR). Debris objects in space refer to the collection of defunct objects orbiting the Earth. Examples of debris include non-operational satellites, rocket bodies, and fragments generated from explosions, collisions, or faulty payload assembly.

Loading next visibility...
Identifier
41197, 2000-055DA
Orbit
SSO
Country
Flag of USUS
Related business
Manufacturer
Unknown
Mission
Spacecraft
Bus & Motor
Unknown
Mass
Unknown
Launch date (UTC)
2000-09-21 (26 years ago)
Launch vehicle
Unknown
Launch site
Air Force Western Test Range (AFWTR)
Object type
Payload
Rocket body
Debris
Shape & HBR
Unknown shape, 0.1 m
Radar Cross Section
Small (<0.1 m²)

Expand to show TLE details & history
Last TLE update: 13 hours ago

TLE from 13 hours ago
0 NOAA 16 DEB
1 41197U 00055DA  26255.51606551  .00004283  00000-0  14536-2 0  9999
2 41197  98.6541 274.7242 0030823 228.7896 131.0633 14.36929193551930
Epoch: 2026-09-12T12:23Z
TLE epoch observation values (Epoch: 2026-09-12T12:23:08.060Z)
Latitude
0.00008°
Longitude
97.41666°
Altitude
786.114 km
Speed
7.453 km/s
True Right ascension
18h 18m 53s
True Declination
0° 00' 00"
Sunlit
Object was in daylight at epoch
Visualization orbit readout
Latitude
Unknown
Longitude
Unknown
Altitude
Unknown
Speed
Unknown
Apparent Right ascension
Unknown
Apparent Declination
Unknown
Sunlit
N/A
Visualization observer readout
Local Sidereal Time
17:32:58
Azimuth
Unknown
Elevation
Unknown
Doppler factor
Unknown
Orbital elements
Apogee altitude
787.815 km
Perigee altitude
743.776 km
Semi-major axis
7,143.933 km
Eccentricity
0.00308
Inclination
98.6541°
RAAN
274.7242°
Arg. of periapsis
228.7896°
True anomaly
131.32894°
Mean anomaly
131.0633°
Eccentric anomaly
131.19619°
Mean motion
3.59449 °/min
Orbital period
100.15 mins
BSTAR
0.0014536
Loading maneuver chart data...
Computing Atmospheric mass density...
Loading historical data...
Loading historical data...
Loading historical data...
Loading historical data...
Loading historical data...
Loading historical data...
Loading historical data...

Documentation

Showing up to 5 results
|